Weather History for KCFV - July, 2013

Change the Weather History Date:

Tuesday, July 9, 2013

  Actual Average Record
Temperature  
Mean Temperature 88 °F -  
Max Temperature 102 °F 87 °F 102 °F (2011)
Min Temperature 75 °F 67 °F 64 °F (2004)
Cooling Degree Days 24    
Growing Degree Days 38 (Base 50)    
Moisture  
Dew Point 70 °F    
Average Humidity 57    
Maximum Humidity 85    
Minimum Humidity 33    
Precipitation  
Precipitation 0.00 in - - ()
Sea Level Pressure  
Sea Level Pressure 29.96 in    
Wind  
Wind Speed 10 mph (South)    
Max Wind Speed 18 mph    
Max Gust Speed 24 mph    
Visibility 10 miles    
Events      
Averages and records for this station are not official NWS values.
T = Trace of Precipitation, MM = Missing Value Source: NWS Daily Summary

Daily Weather History Graph

Daily Weather History Graph

Search for Another Location

Airport or City:

Trip Planner

Search our weather history database for the weather conditions in past years. The results will help you decide how hot, cold, wet, or windy it might be!

Date:

Astronomy

Jul. 09, 2013 Rise Set
Actual Time 6:10 AM CDT 8:44 PM CDT
Civil Twilight 5:40 AM CDT 9:14 PM CDT
Nautical Twilight 5:02 AM CDT 9:52 PM CDT
Astronomical Twilight 4:20 AM CDT 10:34 PM CDT
Moon 7:32 AM CDT (7/9) 9:26 PM CDT (7/9)
Length of Visible Light 15h 34m
Length of Day
14h 33m
New Moon, 2% of the Moon is Illuminated
Jul 9
New Moon
Jul 15
First Quarter
Jul 22
Full
Jul 29
Last Quarter
Aug 6
New

Hourly Weather History & Observations

Time (CDT) Temp. Heat Index Dew Point Humidity Pressure Visibility Wind Dir Wind Speed Gust Speed Precip Events Conditions
12:52 AM 79.0 °F - 70.0 °F 74% 29.99 in 10.0 mi South 6.9 mph - N/A   Clear
1:52 AM 78.1 °F - 70.0 °F 76% 29.98 in 10.0 mi South 6.9 mph - N/A   Clear
2:52 AM 78.1 °F - 70.0 °F 76% 30.00 in 10.0 mi South 5.8 mph - N/A   Clear
3:52 AM 77.0 °F - 70.0 °F 79% 29.99 in 10.0 mi SSE 6.9 mph - N/A   Clear
4:52 AM 77.0 °F - 70.0 °F 79% 29.99 in 10.0 mi South 5.8 mph - N/A   Clear
5:52 AM 75.0 °F - 70.0 °F 84% 29.99 in 10.0 mi SSE 5.8 mph - N/A   Clear
6:52 AM 75.9 °F - 71.1 °F 85% 30.00 in 10.0 mi South 5.8 mph - N/A   Clear
7:52 AM 80.1 °F 83.8 °F 72.0 °F 76% 30.01 in 10.0 mi South 6.9 mph - N/A   Clear
8:52 AM 84.0 °F 89.0 °F 71.1 °F 65% 30.02 in 10.0 mi South 11.5 mph 18.4 mph N/A   Clear
9:52 AM 88.0 °F 92.9 °F 70.0 °F 55% 30.00 in 10.0 mi SSW 15.0 mph - N/A   Clear
10:52 AM 91.0 °F 96.6 °F 70.0 °F 50% 29.99 in 10.0 mi South 16.1 mph - N/A   Clear
11:52 AM 93.9 °F 100.8 °F 71.1 °F 47% 29.98 in 10.0 mi South 15.0 mph - N/A   Clear
12:52 PM 97.0 °F 104.8 °F 71.1 °F 43% 29.96 in 10.0 mi South 17.3 mph - N/A   Clear
1:52 PM 99.0 °F 106.2 °F 70.0 °F 39% 29.95 in 10.0 mi South 18.4 mph - N/A   Clear
2:52 PM 100.9 °F 106.7 °F 68.0 °F 34% 29.93 in 10.0 mi SSW 17.3 mph 24.2 mph N/A   Clear
3:52 PM 102.0 °F 108.8 °F 69.1 °F 34% 29.92 in 10.0 mi SSW 16.1 mph 21.9 mph N/A   Clear
4:52 PM 100.9 °F 106.7 °F 68.0 °F 34% 29.91 in 10.0 mi South 16.1 mph 21.9 mph N/A   Clear
5:52 PM 100.9 °F 106.0 °F 66.9 °F 33% 29.91 in 10.0 mi South 15.0 mph 19.6 mph N/A   Partly Cloudy
6:52 PM 98.1 °F 105.0 °F 70.0 °F 40% 29.90 in 10.0 mi South 15.0 mph 20.7 mph N/A   Clear
7:52 PM 95.0 °F 101.3 °F 70.0 °F 44% 29.88 in 10.0 mi South 12.7 mph - N/A   Clear
8:52 PM 91.0 °F 96.6 °F 70.0 °F 50% 29.88 in 10.0 mi South 11.5 mph - N/A   Clear
9:52 PM 89.1 °F 94.1 °F 70.0 °F 53% 29.91 in 10.0 mi South 9.2 mph - N/A   Clear
10:52 PM 87.1 °F 92.0 °F 70.0 °F 57% 29.92 in 10.0 mi South 8.1 mph - N/A   Clear
11:52 PM 87.1 °F 92.0 °F 70.0 °F 57% 29.94 in 10.0 mi South 10.4 mph - N/A   Clear